Time,TemperatureF,DewpointF,PressureIn,WindDirection,WindDirectionDegrees,WindSpeedMPH,WindSpeedGustMPH,Humidity,HourlyPrecipIn,Conditions,Clouds,dailyrainin,SoftwareType,DateUTC
2013-08-30 00:00:00,74.7,71.6,29.91,North,-999,0.0,0.0,90,0.00,,,-99.99,WeatherLink 5.6,2013-08-30 05:00:00,
2013-08-30 00:30:00,74.4,71.9,29.90,North,-999,0.0,0.0,92,0.00,,,-99.99,WeatherLink 5.6,2013-08-30 05:30:00,
2013-08-30 01:00:00,73.9,71.4,29.89,North,-999,0.0,0.0,92,0.00,,,-99.99,WeatherLink 5.6,2013-08-30 06:00:00,
2013-08-30 01:30:00,73.5,71.4,29.89,North,-999,0.0,0.0,93,0.00,,,-99.99,WeatherLink 5.6,2013-08-30 06:30:00,
2013-08-30 02:00:00,73.2,71.4,29.89,North,-999,0.0,0.0,94,0.00,,,-99.99,WeatherLink 5.6,2013-08-30 07:00:00,
2013-08-30 02:30:00,73.0,71.2,29.89,North,-999,0.0,0.0,94,0.00,,,-99.99,WeatherLink 5.6,2013-08-30 07:30:00,
2013-08-30 03:00:00,72.8,71.0,29.90,North,-999,0.0,0.0,94,0.00,,,-99.99,WeatherLink 5.6,2013-08-30 08:00:00,
2013-08-30 03:30:00,72.7,70.9,29.89,North,-999,0.0,0.0,94,0.00,,,-99.99,WeatherLink 5.6,2013-08-30 08:30:00,
2013-08-30 04:00:00,72.3,70.8,29.89,North,-999,0.0,0.0,95,0.00,,,-99.99,WeatherLink 5.6,2013-08-30 09:00:00,
2013-08-30 04:30:00,72.1,70.6,29.89,North,-999,0.0,0.0,95,0.00,,,-99.99,WeatherLink 5.6,2013-08-30 09:30:00,
2013-08-30 05:00:00,71.8,70.6,29.89,North,-999,0.0,0.0,96,0.00,,,-99.99,WeatherLink 5.6,2013-08-30 10:00:00,
2013-08-30 05:30:00,71.6,70.4,29.89,North,-999,0.0,0.0,96,0.00,,,-99.99,WeatherLink 5.6,2013-08-30 10:30:00,
2013-08-30 06:00:00,71.6,70.4,29.90,North,-999,0.0,0.0,96,0.00,,,-99.99,WeatherLink 5.6,2013-08-30 11:00:00,
2013-08-30 06:30:00,71.5,70.3,29.91,North,-999,0.0,0.0,96,0.00,,,-99.99,WeatherLink 5.6,2013-08-30 11:30:00,
2013-08-30 07:00:00,72.0,71.1,29.92,West,270,0.0,2.0,97,0.00,,,-99.99,WeatherLink 5.6,2013-08-30 12:00:00,
2013-08-30 07:30:00,73.5,72.3,29.92,West,270,0.0,4.0,96,0.00,,,-99.99,WeatherLink 5.6,2013-08-30 12:30:00,
2013-08-30 08:00:00,75.6,73.1,29.93,WNW,292,0.0,5.0,92,0.00,,,-99.99,WeatherLink 5.6,2013-08-30 13:00:00,
2013-08-30 08:30:00,78.1,72.2,29.93,WNW,292,1.0,9.0,82,0.00,,,-99.99,WeatherLink 5.6,2013-08-30 13:30:00,
2013-08-30 09:00:00,80.9,72.6,29.94,NW,315,2.0,10.0,76,0.00,,,-99.99,WeatherLink 5.6,2013-08-30 14:00:00,
2013-08-30 09:30:00,82.8,72.8,29.94,WNW,292,1.0,7.0,72,0.00,,,-99.99,WeatherLink 5.6,2013-08-30 14:30:00,
2013-08-30 10:00:00,84.5,72.3,29.94,WNW,292,1.0,9.0,67,0.00,,,-99.99,WeatherLink 5.6,2013-08-30 15:00:00,
2013-08-30 10:30:00,86.1,73.0,29.93,WNW,292,2.0,7.0,65,0.00,,,-99.99,WeatherLink 5.6,2013-08-30 15:30:00,
2013-08-30 11:00:00,87.8,72.7,29.92,NW,315,1.0,7.0,61,0.00,,,-99.99,WeatherLink 5.6,2013-08-30 16:00:00,
2013-08-30 11:30:00,90.1,72.3,29.92,WSW,247,1.0,7.0,56,0.00,,,-99.99,WeatherLink 5.6,2013-08-30 16:30:00,
2013-08-30 12:00:00,91.4,70.7,29.92,WNW,292,2.0,6.0,51,0.00,,,-99.99,WeatherLink 5.6,2013-08-30 17:00:00,
2013-08-30 12:30:00,91.0,70.4,29.91,WNW,292,1.0,8.0,51,0.00,,,-99.99,WeatherLink 5.6,2013-08-30 17:30:00,
2013-08-30 13:00:00,91.0,71.5,29.90,West,270,4.0,13.0,53,0.00,,,-99.99,WeatherLink 5.6,2013-08-30 18:00:00,
2013-08-30 13:30:00,90.1,73.8,29.90,SSW,202,5.0,12.0,59,0.00,,,-99.99,WeatherLink 5.6,2013-08-30 18:30:00,
2013-08-30 14:00:00,90.3,71.4,29.89,SW,225,5.0,12.0,54,0.00,,,-99.99,WeatherLink 5.6,2013-08-30 19:00:00,
2013-08-30 14:30:00,90.1,72.3,29.87,SW,225,5.0,12.0,56,0.00,,,-99.99,WeatherLink 5.6,2013-08-30 19:30:00,
2013-08-30 15:00:00,89.5,71.7,29.86,SSW,202,6.0,14.0,56,0.00,,,-99.99,WeatherLink 5.6,2013-08-30 20:00:00,
2013-08-30 15:30:00,89.9,71.0,29.86,SSW,202,5.0,14.0,54,0.00,,,-99.99,WeatherLink 5.6,2013-08-30 20:30:00,
2013-08-30 16:00:00,90.1,71.2,29.84,SW,225,4.0,12.0,54,0.00,,,-99.99,WeatherLink 5.6,2013-08-30 21:00:00,
2013-08-30 16:30:00,89.5,72.8,29.84,SW,225,4.0,13.0,58,0.00,,,-99.99,WeatherLink 5.6,2013-08-30 21:30:00,
2013-08-30 17:00:00,88.2,73.5,29.84,SW,225,5.0,13.0,62,0.00,,,-99.99,WeatherLink 5.6,2013-08-30 22:00:00,
2013-08-30 17:30:00,88.6,72.4,29.84,West,270,4.0,11.0,59,0.00,,,-99.99,WeatherLink 5.6,2013-08-30 22:30:00,
2013-08-30 18:00:00,87.4,70.8,29.83,WSW,247,4.0,11.0,58,0.00,,,-99.99,WeatherLink 5.6,2013-08-30 23:00:00,
2013-08-30 18:30:00,86.3,69.3,29.83,WSW,247,4.0,11.0,57,0.00,,,-99.99,WeatherLink 5.6,2013-08-30 23:30:00,
2013-08-30 19:00:00,85.7,69.2,29.82,WSW,247,3.0,10.0,58,0.00,,,-99.99,WeatherLink 5.6,2013-08-31 00:00:00,
2013-08-30 19:30:00,84.7,70.2,29.83,WSW,247,0.0,5.0,62,0.00,,,-99.99,WeatherLink 5.6,2013-08-31 00:30:00,
2013-08-30 20:00:00,83.8,70.3,29.83,West,270,1.0,5.0,64,0.00,,,-99.99,WeatherLink 5.6,2013-08-31 01:00:00,
2013-08-30 20:30:00,83.0,70.9,29.83,West,270,0.0,4.0,67,0.00,,,-99.99,WeatherLink 5.6,2013-08-31 01:30:00,
2013-08-30 21:00:00,82.2,71.0,29.83,West,270,0.0,3.0,69,0.00,,,-99.99,WeatherLink 5.6,2013-08-31 02:00:00,
2013-08-30 21:30:00,81.1,71.6,29.83,North,-999,0.0,0.0,73,0.00,,,-99.99,WeatherLink 5.6,2013-08-31 02:30:00,
2013-08-30 22:00:00,79.4,71.9,29.83,North,-999,0.0,0.0,78,0.00,,,-99.99,WeatherLink 5.6,2013-08-31 03:00:00,
2013-08-30 22:30:00,78.6,71.9,29.83,West,270,0.0,1.0,80,0.00,,,-99.99,WeatherLink 5.6,2013-08-31 03:30:00,
2013-08-30 23:00:00,77.9,71.6,29.84,North,-999,0.0,0.0,81,0.00,,,-99.99,WeatherLink 5.6,2013-08-31 04:00:00,
2013-08-30 23:30:00,77.2,71.6,29.84,North,-999,0.0,0.0,83,0.00,,,-99.99,WeatherLink 5.6,2013-08-31 04:30:00,